EN

Hourly Weather Luhove

Today, 25 November, Wednesday

Time Temperature Precipitation Wind Pressure Humidity
00:00 +1°C° 0 mm 5 mps 767 mmHg 80%
01:00 0°C° 0 mm 5 mps 767 mmHg 82%
02:00 0°C° 0 mm 4 mps 767 mmHg 84%
03:00 0°C° 0 mm 4 mps 767 mmHg 85%
04:00 0°C° 0 mm 4 mps 766 mmHg 87%
05:00 0°C° 0 mm 4 mps 766 mmHg 88%
06:00 0°C° 0 mm 4 mps 766 mmHg 88%
07:00 0°C° 0 mm 4 mps 766 mmHg 88%
08:00 0°C° 0 mm 4 mps 766 mmHg 84%
09:00 +1°C° 0 mm 4 mps 766 mmHg 77%
10:00 +3°C° 0 mm 5 mps 766 mmHg 70%
11:00 +5°C° 0 mm 5 mps 766 mmHg 64%
12:00 +5°C° 0 mm 6 mps 765 mmHg 59%
13:00 +7°C° 0 mm 6 mps 765 mmHg 54%
14:00 +8°C° 0 mm 6 mps 765 mmHg 49%
15:00 +7°C° 0 mm 6 mps 765 mmHg 52%
16:00 +6°C° 0 mm 5 mps 765 mmHg 54%
17:00 +5°C° 0 mm 5 mps 764 mmHg 57%
18:00 +3°C° 0 mm 5 mps 764 mmHg 58%
19:00 +3°C° 0 mm 5 mps 765 mmHg 59%
20:00 +3°C° 0 mm 5 mps 765 mmHg 60%
21:00 +2°C° 0 mm 5 mps 765 mmHg 62%
22:00 +3°C° 0 mm 4 mps 765 mmHg 64%
23:00 +1°C° 0 mm 4 mps 765 mmHg 66%

Tomorrow, 26 November, Thursday

Time Temperature Precipitation Wind Pressure Humidity
00:00 +1°C° 0 mm 4 mps 765 mmHg 67%
01:00 +1°C° 0 mm 4 mps 765 mmHg 69%
02:00 +2°C° 0 mm 3 mps 765 mmHg 70%
03:00 +2°C° 0 mm 3 mps 765 mmHg 74%
04:00 +2°C° 0 mm 3 mps 765 mmHg 77%
05:00 +1°C° 0 mm 3 mps 765 mmHg 81%
06:00 +1°C° 0 mm 3 mps 765 mmHg 83%
07:00 +2°C° 0 mm 3 mps 766 mmHg 85%
08:00 +2°C° 0 mm 3 mps 766 mmHg 87%
09:00 +4°C° 0 mm 2 mps 766 mmHg 81%
10:00 +5°C° 0 mm 2 mps 766 mmHg 76%
11:00 +8°C° 0 mm 1 mps 766 mmHg 70%
12:00 +8°C° 0 mm 1 mps 766 mmHg 69%
13:00 +9°C° 0 mm 1 mps 766 mmHg 67%
14:00 +10°C° 0 mm 1 mps 766 mmHg 66%
15:00 +9°C° 0 mm 1 mps 765 mmHg 72%
16:00 +8°C° 0 mm 1 mps 765 mmHg 78%
17:00 +6°C° 0 mm 2 mps 765 mmHg 84%
18:00 +6°C° 0 mm 2 mps 765 mmHg 85%
19:00 +5°C° 0 mm 3 mps 765 mmHg 86%
20:00 +5°C° 0 mm 3 mps 765 mmHg 87%
21:00 +5°C° 0 mm 3 mps 765 mmHg 87%
22:00 +5°C° 0 mm 3 mps 765 mmHg 87%
23:00 +5°C° 0 mm 3 mps 765 mmHg 87%

Day after tomorrow, 27 November, Friday

Time Temperature Precipitation Wind Pressure Humidity
00:00 +5°C° 0 mm 4 mps 765 mmHg 85%
01:00 +5°C° 0 mm 4 mps 765 mmHg 84%
02:00 +5°C° 0 mm 4 mps 765 mmHg 83%
03:00 +5°C° 0 mm 4 mps 765 mmHg 82%
04:00 +5°C° 0 mm 5 mps 765 mmHg 81%
05:00 +5°C° 0 mm 5 mps 764 mmHg 81%
06:00 +6°C° 0 mm 5 mps 764 mmHg 81%
07:00 +6°C° 0 mm 5 mps 764 mmHg 81%
08:00 +6°C° 0 mm 5 mps 764 mmHg 81%
09:00 +8°C° 0 mm 6 mps 764 mmHg 75%
10:00 +9°C° 0 mm 7 mps 764 mmHg 69%
11:00 +11°C° 0 mm 7 mps 764 mmHg 62%
12:00 +11°C° 0 mm 7 mps 764 mmHg 63%
13:00 +11°C° 0 mm 7 mps 764 mmHg 63%
14:00 +12°C° 0 mm 8 mps 763 mmHg 63%
15:00 +11°C° 0 mm 7 mps 763 mmHg 70%
16:00 +10°C° 0 mm 7 mps 763 mmHg 76%
17:00 +9°C° 0 mm 6 mps 763 mmHg 83%
18:00 +8°C° 0 mm 6 mps 763 mmHg 84%
19:00 +8°C° 0 mm 6 mps 763 mmHg 85%
20:00 +8°C° 0 mm 6 mps 763 mmHg 86%
21:00 +8°C° 0 mm 6 mps 763 mmHg 87%
22:00 +7°C° 0 mm 6 mps 763 mmHg 88%
23:00 +7°C° 0 mm 6 mps 763 mmHg 89%

28 November, Saturday

Time Temperature Precipitation Wind Pressure Humidity
00:00 +7°C° 0 mm 6 mps 763 mmHg 90%
01:00 +7°C° 0 mm 5 mps 763 mmHg 90%
02:00 +7°C° 0 mm 5 mps 763 mmHg 90%
03:00 +7°C° 0 mm 5 mps 762 mmHg 90%
04:00 +7°C° 0 mm 5 mps 762 mmHg 89%
05:00 +7°C° 0 mm 5 mps 762 mmHg 89%
06:00 +7°C° 0 mm 4 mps 762 mmHg 89%
07:00 +7°C° 0 mm 4 mps 762 mmHg 89%
08:00 +7°C° 0 mm 4 mps 762 mmHg 89%
09:00 +7°C° 0.1 mm 4 mps 762 mmHg 86%
10:00 +9°C° 0.1 mm 3 mps 761 mmHg 84%
11:00 +9°C° 0.1 mm 3 mps 761 mmHg 82%
12:00 +9°C° 0.1 mm 3 mps 761 mmHg 80%
13:00 +9°C° 0.1 mm 3 mps 761 mmHg 79%
14:00 +9°C° 0.1 mm 3 mps 760 mmHg 77%
15:00 +9°C° 0 mm 2 mps 760 mmHg 78%
16:00 +8°C° 0 mm 2 mps 760 mmHg 79%
17:00 +8°C° 0 mm 2 mps 760 mmHg 79%
18:00 +8°C° 0 mm 2 mps 760 mmHg 80%
19:00 +7°C° 0 mm 2 mps 760 mmHg 80%
20:00 +7°C° 0 mm 2 mps 760 mmHg 80%
21:00 +7°C° 0 mm 2 mps 760 mmHg 81%
22:00 +6°C° 0 mm 2 mps 760 mmHg 81%
23:00 +6°C° 0 mm 2 mps 760 mmHg 81%

29 November, Sunday

Time Temperature Precipitation Wind Pressure Humidity
00:00 +5°C° 0 mm 2 mps 759 mmHg 82%
01:00 +4°C° 0 mm 3 mps 759 mmHg 83%
02:00 +3°C° 0 mm 3 mps 759 mmHg 84%
03:00 +3°C° 0 mm 3 mps 759 mmHg 84%
04:00 +2°C° 0 mm 3 mps 759 mmHg 85%
05:00 +2°C° 0 mm 3 mps 759 mmHg 85%
06:00 +2°C° 0 mm 3 mps 759 mmHg 86%
07:00 +2°C° 0 mm 3 mps 759 mmHg 88%
08:00 +2°C° 0 mm 3 mps 759 mmHg 89%
09:00 +3°C° 0 mm 3 mps 759 mmHg 85%
10:00 +4°C° 0 mm 3 mps 759 mmHg 81%
11:00 +5°C° 0 mm 3 mps 759 mmHg 78%
12:00 +5°C° 0 mm 3 mps 759 mmHg 78%
13:00 +5°C° 0 mm 3 mps 759 mmHg 78%
14:00 +5°C° 0 mm 3 mps 759 mmHg 79%
15:00 +5°C° 0 mm 3 mps 760 mmHg 79%
16:00 +4°C° 0 mm 3 mps 760 mmHg 80%
17:00 +4°C° 0 mm 3 mps 760 mmHg 80%
18:00 +4°C° 0 mm 3 mps 760 mmHg 79%
19:00 +3°C° 0 mm 3 mps 761 mmHg 78%
20:00 +3°C° 0 mm 3 mps 761 mmHg 76%
21:00 +3°C° 0 mm 3 mps 761 mmHg 74%
22:00 +3°C° 0 mm 4 mps 762 mmHg 73%
23:00 +1°C° 0 mm 4 mps 762 mmHg 71%

30 November, Monday

Time Temperature Precipitation Wind Pressure Humidity
00:00 +1°C° 0 mm 4 mps 762 mmHg 73%
01:00 0°C° 0 mm 4 mps 762 mmHg 74%
02:00 0°C° 0 mm 4 mps 762 mmHg 76%
03:00 -1°C° 0 mm 4 mps 762 mmHg 77%
04:00 -1°C° 0 mm 4 mps 762 mmHg 77%
05:00 -1°C° 0 mm 4 mps 762 mmHg 77%
06:00 -1°C° 0 mm 5 mps 763 mmHg 76%
07:00 -1°C° 0 mm 5 mps 763 mmHg 74%
08:00 -1°C° 0 mm 5 mps 763 mmHg 73%
09:00 0°C° 0 mm 5 mps 763 mmHg 67%
10:00 +1°C° 0 mm 5 mps 763 mmHg 62%
11:00 +2°C° 0 mm 6 mps 763 mmHg 57%
12:00 +2°C° 0.2 mm 6 mps 763 mmHg 57%
13:00 +2°C° 0.2 mm 6 mps 763 mmHg 58%
14:00 +2°C° 0.2 mm 6 mps 763 mmHg 58%
15:00 +2°C° 0.4 mm 6 mps 763 mmHg 65%
16:00 0°C° 0.4 mm 7 mps 763 mmHg 71%
17:00 0°C° 0.4 mm 7 mps 763 mmHg 78%
18:00 0°C° 0.4 mm 8 mps 763 mmHg 81%
19:00 0°C° 0.4 mm 8 mps 764 mmHg 83%
20:00 -1°C° 0.4 mm 8 mps 764 mmHg 86%
21:00 -1°C° 0 mm 8 mps 764 mmHg 85%
22:00 0°C° 0 mm 8 mps 764 mmHg 85%
23:00 0°C° 0 mm 8 mps 764 mmHg 85%
Show more